974  
NZUS59 KLOT 270209  
HRRLOT  
 
CHICAGO AREA WEATHER ROUNDUP  
NATIONAL WEATHER SERVICE CHICAGO/ROMEOVILLE IL  
900 PM CDT FRI MAY 26 2017  
 
NOTE: "FAIR" INDICATES FEW OR NO CLOUDS BELOW 12,000 FEET WITH NO  
SIGNIFICANT WEATHER AND/OR OBSTRUCTIONS TO VISIBILITY.  
 
* THESE STATIONS ARE NOT UNDER NWS QUALITY CONTROL. THEY ALSO MAY NOT  
REPORT WEATHER SUCH AS PRECIPITATION OR FOG.  
 
ILZ005-006-012>014-019>023-270300-  
NORTHEAST ILLINOIS  
 
CITY SKY/WX TMP DP RH WIND PRES REMARKS  
OHARE LGT RAIN 56 53 90 NE12 29.84R  
MIDWAY DRIZZLE 57 55 93 NE9 29.83R  
AURORA CLOUDY 58 56 93 NE10 29.83R  
LANSING* CLOUDY 56 55 95 NE9 29.83R  
JOLIET* CLOUDY 60 58 92 NE6 29.82S  
WAUKEGAN MOCLDY 55 54 96 E9 29.84R  
DUPAGE AIRPORT CLOUDY 56 56 100 NE8 29.83R  
WHEELING LGT RAIN 54 54 100 NE7 29.86R FOG  
KANKAKEE* MOCLDY 64 64 97 CALM 29.80S  
MORRIS* CLOUDY 60 57 90 CALM 29.81R  
LEWIS AIRPORT* CLOUDY 57 57 100 NE14 29.82S FOG  

 
 
WIZ051-052-058>065-066-070>072-270300-  
SOUTHEAST WISCONSIN  
 
CITY SKY/WX TMP DP RH WIND PRES REMARKS  
MILWAUKEE MOCLDY 54 52 93 CALM 29.86R  
KENOSHA* MOCLDY 56 53 90 E3 29.85R  
RACINE* MOCLDY 51 50 96 CALM 29.87R  
WAUKESHA CLEAR 55 54 94 CALM 29.87R  
WEST BEND CLEAR 55 54 94 CALM 29.86S  

 
 
INZ001>003-010>013-019-020-270300-  
NORTHWEST INDIANA  
 
CITY SKY/WX TMP DP RH WIND PRES REMARKS  
GARY* CLOUDY 57 54 88 E14 29.83S  
MICHIGAN CITY* NOT AVBL  
RENSSELAER* NOT AVBL  
VALPARAISO CLOUDY 63 61 93 NE9 29.82S  

 
 
LMZ740>746-270300-  
SOUTHERN LAKE MICHIGAN  
 
STATION/POSITION TIME SKY/WX TEMP WIND PRES VSBY  
AIR DIR/SP/G  
(UTC) (F) (DEG/KT/KT) (MB) (MI)  
HARRISON CRIB 0140 53 40/ 15/ 16 N/A  
BURNHAM HARBOR 0200 54 40/ 11/ 13 N/A  
CALUMET HARBOR 0148 54 330/ 8/ 10 1010.0R  
BURNS HARBOR 0140 56 70/ 17/ 21 1010.2F  
MICHIGAN CITY 0140 55 50/ 18/ 19 N/A  

 
 
ABBREVIATIONS USED IN REMARKS  
TC - TEMPERATURE IN CELSIUS  
WCI - WIND CHILL INDEX  
HX - HEAT INDEX  
VSB - VISIBILITY  

 
 
 
CLICK HERE TO GO TO PREVIOUS BULLETINS.

The Nexlab IL Page
The Nexlab IN Page Main Text Page